Thermal, CA

5:43 PM PST on December 11, 2017 (GMT -0800)
Desert Resorts Regional

Weather History for KTRM - January, 2013

Change the Weather History Date:

Wednesday, January 9, 2013

  Actual Average Record
Temperature  
Mean Temperature 57 °F 54 °F  
Max Temperature 75 °F 71 °F 85 °F (1962)
Min Temperature 38 °F 37 °F 24 °F (1964)
Degree Days  
Heating Degree Days 8 11  
Month to date heating degree days 122 101  
Since 1 July heating degree days 560 639  
Cooling Degree Days 0 0  
Month to date cooling degree days 0 0  
Year to date cooling degree days 0 0  
Growing Degree Days 6 (Base 50)    
Moisture  
Dew Point 34 °F    
Average Humidity 47    
Maximum Humidity 70    
Minimum Humidity 23    
Precipitation  
Precipitation 0.00 in 0.02 in 1.03 in (1980)
Month to date precipitation T 0.21  
Year to date precipitation T 0.21  
Since 1 July precipitation 2.18  
Snow  
Snow 0.00 in - - ()
Month to date snowfall 0.0  
Year to date snowfall 0.0  
Snow Depth 0.00 in    
Sea Level Pressure  
Sea Level Pressure 30.04 in    
Wind  
Wind Speed 3 mph (SW)    
Max Wind Speed 10 mph    
Max Gust Speed 15 mph    
Visibility 10 miles    
Events      
T = Trace of Precipitation, MM = Missing Value Source: NWS Daily Summary

Daily Weather History Graph

Daily Weather History Graph

Search for Another Location

Airport or City:

Trip Planner

Search our weather history database for the weather conditions in past years. The results will help you decide how hot, cold, wet, or windy it might be!

Date:

Astronomy

Jan. 09, 2013 Rise Set
Actual Time 6:49 AM PST 4:54 PM PST
Civil Twilight 6:22 AM PST 5:21 PM PST
Nautical Twilight 5:51 AM PST 5:52 PM PST
Astronomical Twilight 5:21 AM PST 6:22 PM PST
Moon 4:33 AM PST (1/9) 3:00 PM PST (1/9)
Length of Visible Light 10h 58m
Length of Day
10h 04m
Waning Crescent, 6% of the Moon is Illuminated
Jan 9
Waning Crescent
Jan 11
New
Jan 18
First Quarter
Jan 26
Full
Feb 3
Last Quarter

Hourly Weather History & Observations

Time (PST) Temp. Windchill Dew Point Humidity Pressure Visibility Wind Dir Wind Speed Gust Speed Precip Events Conditions
12:52 AM 48.0 °F - 33.1 °F 56% 30.09 in 10.0 mi Calm Calm - N/A   Clear
1:52 AM 45.0 °F 43.5 °F 30.9 °F 58% 30.09 in 10.0 mi West 3.5 mph - N/A   Clear
2:52 AM 39.9 °F - 30.0 °F 68% 30.09 in 10.0 mi Calm Calm - N/A   Clear
3:52 AM 44.1 °F 40.8 °F 30.9 °F 60% 30.09 in 10.0 mi NNE 5.8 mph - N/A   Clear
4:52 AM 39.9 °F 36.7 °F 30.9 °F 70% 30.09 in 10.0 mi West 4.6 mph - N/A   Clear
5:52 AM 42.1 °F - 32.0 °F 67% 30.10 in 10.0 mi Calm Calm - N/A   Clear
6:52 AM 39.9 °F - 30.9 °F 70% 30.11 in 10.0 mi Calm Calm - N/A   Clear
7:52 AM 46.9 °F - 34.0 °F 61% 30.14 in 10.0 mi Calm Calm - N/A   Clear
9:52 AM 62.1 °F - 37.9 °F 41% 30.16 in 10.0 mi Calm Calm - N/A   Clear
10:52 AM 66.0 °F - 35.1 °F 32% 30.12 in 10.0 mi Calm Calm - N/A   Clear
11:52 AM 70.0 °F - 36.0 °F 29% 30.07 in 10.0 mi Calm Calm - N/A   Clear
12:52 PM 73.0 °F - 37.0 °F 27% 30.04 in 10.0 mi Variable 3.5 mph - N/A   Clear
1:52 PM 73.9 °F - 33.1 °F 22% 30.02 in 10.0 mi SSE 6.9 mph - N/A   Clear
2:52 PM 71.1 °F - 34.0 °F 26% 30.01 in 10.0 mi SSE 5.8 mph - N/A   Clear
3:52 PM 68.0 °F - 37.0 °F 32% 30.01 in 10.0 mi SSE 6.9 mph - N/A   Clear
4:52 PM 62.1 °F - 34.0 °F 35% 29.98 in 10.0 mi SSE 4.6 mph - N/A   Clear
5:52 PM 55.9 °F - 34.0 °F 44% 29.97 in 10.0 mi Calm Calm - N/A   Clear
6:52 PM 51.1 °F - 33.1 °F 50% 29.97 in 10.0 mi Calm Calm - N/A   Clear
7:52 PM 51.1 °F - 35.1 °F 54% 29.96 in 10.0 mi West 3.5 mph - N/A   Clear
8:52 PM 51.1 °F - 36.0 °F 56% 29.95 in 10.0 mi NNW 3.5 mph - N/A   Clear
9:52 PM 52.0 °F - 37.0 °F 57% 29.94 in 10.0 mi North 3.5 mph - N/A   Clear
10:52 PM 52.0 °F - 37.9 °F 59% 29.94 in 10.0 mi Calm Calm - N/A   Clear
11:52 PM 48.0 °F - 36.0 °F 63% 29.91 in 10.0 mi SW 3.5 mph - N/A   Clear